Вернуться в каталог

STARLINK-11646

АктивенСвязьVLEO
NORAD 63186·PAYLOAD·🇺🇸 United States

Запущен Mar 13, 2025 с Cape Canaveral Space Force Station

Loading…

Ближайшие Пролёты (ближайшие 24 часа)

TLE

СвежийSource: CelesTrak SupGP

Эпоха: Sep 15, 2026, 02:09 UTC

1 63186C 25048D   26258.09006944  .00009936  00000+0  77140-4 0  2585
2 63186  43.0004 257.8900 0001516 262.1639  74.8573 15.70843222    19

Отслеживайте STARLINK-11646 в реальном времени с AllMySat

Download on the App Store